RYR9EY LICC-LIMC

Flight info

Callsign RYR9EY
Flight time 1h 43m
Altitude 38000
Route BUDIN DCT NERAR DCT TAGEL DCT TORLI DCT MEDAL DCT GILIO DCT UPDIN DCT SPEZI DCT IDONA DCT MEBUR
Aircraft B738/M-SDE2E3FGHIRWXY/LB1

Departure

Time 2026-04-30 10:47
Airport Catania-Fontanarossa Airport (LICC)

Arrival

Time 2026-04-30 12:30
Airport Milan Malpensa International Airport (LIMC)
Time Latitude Longitude Altitude Speed Heading
2026-04-30 10:20 37.46944 15.06525 30 ft 0 kts 19°
2026-04-30 10:39 37.46934 15.06521 30 ft 4 kts 19°
2026-04-30 10:39 37.46908 15.06510 30 ft 4 kts 18°
2026-04-30 10:40 37.46884 15.06499 31 ft 4 kts 17°
2026-04-30 10:40 37.46864 15.06494 31 ft 4 kts 354°
2026-04-30 10:40 37.46843 15.06506 31 ft 4 kts 301°
2026-04-30 10:40 37.46836 15.06535 31 ft 2 kts 264°
2026-04-30 10:41 37.46836 15.06543 31 ft 0 kts 264°
2026-04-30 10:43 37.46835 15.06525 31 ft 6 kts 264°
2026-04-30 10:43 37.46826 15.06427 31 ft 16 kts 264°
2026-04-30 10:43 37.46813 15.06268 31 ft 19 kts 264°
2026-04-30 10:43 37.46800 15.06107 31 ft 18 kts 264°
2026-04-30 10:44 37.46787 15.05950 31 ft 18 kts 264°
2026-04-30 10:44 37.46774 15.05797 30 ft 17 kts 264°
2026-04-30 10:44 37.46762 15.05651 31 ft 17 kts 264°
2026-04-30 10:44 37.46750 15.05509 31 ft 16 kts 264°
2026-04-30 10:45 37.46739 15.05374 31 ft 15 kts 264°
2026-04-30 10:45 37.46680 15.05270 31 ft 15 kts 220°
2026-04-30 10:45 37.46604 15.05189 32 ft 14 kts 219°
2026-04-30 10:45 37.46553 15.05225 34 ft 10 kts 77°
2026-04-30 10:46 37.46567 15.05306 34 ft 9 kts 84°
2026-04-30 10:46 37.46575 15.05407 33 ft 18 kts 84°
2026-04-30 10:46 37.46612 15.05870 34 ft 89 kts 84°
2026-04-30 10:46 37.46704 15.06934 37 ft 152 kts 83°
2026-04-30 10:47 37.46827 15.08386 494 ft 170 kts 84°
2026-04-30 10:47 37.47023 15.09846 1419 ft 169 kts 78°
2026-04-30 10:47 37.47277 15.11262 2348 ft 165 kts 76°
2026-04-30 10:47 37.47507 15.12748 2940 ft 184 kts 81°
2026-04-30 10:48 37.47719 15.14492 3243 ft 215 kts 82°
2026-04-30 10:48 37.47951 15.16400 3745 ft 227 kts 82°
2026-04-30 10:48 37.48216 15.18495 4017 ft 255 kts 81°
2026-04-30 10:48 37.48515 15.20733 4778 ft 262 kts 81°
2026-04-30 10:49 37.48826 15.23014 5636 ft 267 kts 81°
2026-04-30 10:49 37.49145 15.25330 6498 ft 270 kts 81°
2026-04-30 10:49 37.49523 15.27667 7319 ft 275 kts 71°
2026-04-30 10:49 37.50596 15.29675 7985 ft 287 kts 39°
2026-04-30 10:50 37.52270 15.31102 8666 ft 295 kts 31°
2026-04-30 10:50 37.54038 15.32457 9441 ft 300 kts 31°
2026-04-30 10:50 37.55836 15.33826 10245 ft 304 kts 30°
2026-04-30 10:50 37.57691 15.35247 10627 ft 325 kts 30°
2026-04-30 10:51 37.59690 15.36791 10823 ft 349 kts 30°
2026-04-30 10:51 37.61813 15.38444 11188 ft 365 kts 30°
2026-04-30 10:51 37.63995 15.40154 11848 ft 372 kts 30°
2026-04-30 10:51 37.66195 15.41882 12611 ft 374 kts 29°
2026-04-30 10:52 37.68413 15.43625 13364 ft 377 kts 29°
2026-04-30 10:52 37.70774 15.45017 14019 ft 375 kts
2026-04-30 10:52 37.72484 15.45264 14498 ft 371 kts 355°
2026-04-30 10:52 37.75004 15.44771 15242 ft 366 kts 338°
2026-04-30 10:53 37.77389 15.43645 15945 ft 367 kts 335°
2026-04-30 10:53 37.79765 15.42433 16584 ft 371 kts 334°
2026-04-30 10:53 37.82160 15.41190 17255 ft 373 kts 334°
2026-04-30 10:53 37.84570 15.39944 17878 ft 376 kts 334°
2026-04-30 10:54 37.87004 15.38696 18468 ft 379 kts 334°
2026-04-30 10:54 37.89460 15.37446 19062 ft 382 kts 335°
2026-04-30 10:54 37.91946 15.36188 19641 ft 386 kts 335°
2026-04-30 10:54 37.94446 15.34927 20197 ft 389 kts 335°
2026-04-30 10:55 37.96973 15.33655 20731 ft 392 kts 335°
2026-04-30 10:55 37.99519 15.32373 21276 ft 395 kts 335°
2026-04-30 10:55 38.02083 15.31083 21786 ft 398 kts 335°
2026-04-30 10:55 38.04668 15.29782 22268 ft 401 kts 335°
2026-04-30 10:56 38.07280 15.28464 22693 ft 406 kts 335°
2026-04-30 10:56 38.09915 15.27133 23169 ft 409 kts 335°
2026-04-30 10:56 38.12565 15.25795 23622 ft 411 kts 335°
2026-04-30 10:56 38.15232 15.24446 24092 ft 414 kts 335°
2026-04-30 10:57 38.17917 15.23089 24524 ft 417 kts 335°
2026-04-30 10:57 38.20621 15.21723 24956 ft 419 kts 335°
2026-04-30 10:57 38.23300 15.20364 25351 ft 422 kts 335°
2026-04-30 10:57 38.26033 15.18976 25752 ft 424 kts 335°
2026-04-30 10:58 38.28782 15.17581 26128 ft 427 kts 335°
2026-04-30 10:58 38.31542 15.16179 26494 ft 429 kts 335°
2026-04-30 10:58 38.34325 15.14764 26865 ft 431 kts 335°
2026-04-30 10:58 38.37119 15.13343 27204 ft 433 kts 335°
2026-04-30 10:59 38.39925 15.11915 27540 ft 436 kts 335°
2026-04-30 10:59 38.42746 15.10478 27877 ft 438 kts 335°
2026-04-30 10:59 38.45577 15.09034 28209 ft 439 kts 335°
2026-04-30 10:59 38.48361 15.07431 28491 ft 438 kts 326°
2026-04-30 11:00 38.50849 15.05196 28799 ft 437 kts 320°
2026-04-30 11:00 38.53260 15.02809 29112 ft 439 kts 319°
2026-04-30 11:00 38.55659 15.00389 29398 ft 441 kts 319°
2026-04-30 11:00 38.58075 14.97959 29677 ft 443 kts 319°
2026-04-30 11:01 38.60497 14.95547 30041 ft 442 kts 320°
2026-04-30 11:01 38.62931 14.93149 30467 ft 440 kts 320°
2026-04-30 11:01 38.65349 14.90783 30908 ft 437 kts 320°
2026-04-30 11:01 38.67757 14.88434 31354 ft 434 kts 320°
2026-04-30 11:02 38.70151 14.86101 31763 ft 431 kts 320°
2026-04-30 11:02 38.72530 14.83782 32143 ft 430 kts 320°
2026-04-30 11:02 38.74905 14.81464 32487 ft 429 kts 320°
2026-04-30 11:02 38.77273 14.79151 32858 ft 426 kts 320°
2026-04-30 11:03 38.79622 14.76855 33241 ft 424 kts 320°
2026-04-30 11:03 38.81931 14.74596 33566 ft 422 kts 320°
2026-04-30 11:03 38.84263 14.72310 33869 ft 422 kts 320°
2026-04-30 11:04 38.88893 14.67768 34549 ft 417 kts 319°
2026-04-30 11:04 38.91203 14.65499 34792 ft 418 kts 319°
2026-04-30 11:04 38.93516 14.63225 34988 ft 419 kts 319°
2026-04-30 11:04 38.95826 14.60953 35267 ft 418 kts 319°
2026-04-30 11:05 38.98128 14.58686 35553 ft 416 kts 319°
2026-04-30 11:05 39.00424 14.56423 35785 ft 416 kts 319°
2026-04-30 11:05 39.02728 14.54151 35985 ft 417 kts 319°
2026-04-30 11:05 39.05024 14.51885 36256 ft 416 kts 319°
2026-04-30 11:06 39.07311 14.49626 36500 ft 415 kts 319°
2026-04-30 11:06 39.09605 14.47356 36679 ft 415 kts 319°
2026-04-30 11:06 39.11894 14.45090 36899 ft 414 kts 319°
2026-04-30 11:06 39.14174 14.42832 37146 ft 413 kts 319°
2026-04-30 11:07 39.16442 14.40584 37431 ft 410 kts 319°
2026-04-30 11:07 39.18696 14.38348 37734 ft 407 kts 319°
2026-04-30 11:07 39.20932 14.36127 37993 ft 405 kts 319°
2026-04-30 11:08 39.25406 14.31675 38073 ft 407 kts 319°
2026-04-30 11:08 39.29882 14.27217 38068 ft 405 kts 319°
2026-04-30 11:09 39.34377 14.22881 38079 ft 402 kts 320°
2026-04-30 11:09 39.38898 14.18633 38078 ft 401 kts 321°
2026-04-30 11:10 39.43395 14.14395 38091 ft 400 kts 320°
2026-04-30 11:10 39.47884 14.10143 38091 ft 401 kts 320°
2026-04-30 11:11 39.52388 14.05861 38085 ft 402 kts 320°
2026-04-30 11:11 39.56907 14.01554 38093 ft 404 kts 320°
2026-04-30 11:12 39.61440 13.97229 38092 ft 406 kts 320°
2026-04-30 11:12 39.66000 13.92870 38085 ft 408 kts 320°
2026-04-30 11:13 39.70545 13.88518 38084 ft 409 kts 320°
2026-04-30 11:13 39.75125 13.84124 38087 ft 410 kts 320°
2026-04-30 11:14 39.79710 13.79720 38095 ft 410 kts 320°
2026-04-30 11:14 39.84297 13.75306 38085 ft 410 kts 320°
2026-04-30 11:15 39.88873 13.70898 38095 ft 409 kts 320°
2026-04-30 11:15 39.93438 13.66489 38088 ft 408 kts 320°
2026-04-30 11:16 39.97992 13.62084 38092 ft 408 kts 320°
2026-04-30 11:16 40.02539 13.57677 38103 ft 407 kts 320°
2026-04-30 11:17 40.07075 13.53274 38108 ft 406 kts 320°
2026-04-30 11:17 40.11600 13.48876 38112 ft 405 kts 320°
2026-04-30 11:18 40.16118 13.44475 38110 ft 405 kts 320°
2026-04-30 11:18 40.22873 13.37879 38111 ft 404 kts 320°
2026-04-30 11:19 40.27372 13.33481 38114 ft 403 kts 320°
2026-04-30 11:19 40.31865 13.29088 38121 ft 403 kts 320°
2026-04-30 11:20 40.36371 13.24711 38120 ft 403 kts 320°
2026-04-30 11:20 40.40875 13.20331 38123 ft 403 kts 320°
2026-04-30 11:21 40.45380 13.15933 38120 ft 403 kts 320°
2026-04-30 11:21 40.49878 13.11540 38120 ft 403 kts 320°
2026-04-30 11:22 40.54385 13.07130 38120 ft 404 kts 320°
2026-04-30 11:22 40.58888 13.02716 38108 ft 404 kts 320°
2026-04-30 11:23 40.63388 12.98295 38109 ft 404 kts 320°
2026-04-30 11:24 40.70107 12.91680 38109 ft 404 kts 320°
2026-04-30 11:24 40.74632 12.87215 38110 ft 403 kts 320°
2026-04-30 11:25 40.81341 12.80582 38104 ft 404 kts 320°
2026-04-30 11:26 40.90306 12.71691 38102 ft 402 kts 320°
2026-04-30 11:26 40.94772 12.67252 38099 ft 402 kts 320°
2026-04-30 11:27 40.99233 12.62808 38102 ft 401 kts 320°
2026-04-30 11:27 41.03680 12.58371 38103 ft 400 kts 320°
2026-04-30 11:28 41.10340 12.51713 38107 ft 400 kts 320°
2026-04-30 11:29 41.14778 12.47264 38113 ft 400 kts 319°
2026-04-30 11:29 41.21433 12.40579 38103 ft 400 kts 320°
2026-04-30 11:30 41.28103 12.33863 38104 ft 401 kts 319°
2026-04-30 11:31 41.32550 12.29376 38102 ft 401 kts 319°
2026-04-30 11:31 41.37000 12.24877 38103 ft 402 kts 319°
2026-04-30 11:32 41.41454 12.20366 38100 ft 402 kts 319°
2026-04-30 11:32 41.45903 12.15851 38107 ft 402 kts 319°
2026-04-30 11:33 41.52565 12.09078 38112 ft 401 kts 319°
2026-04-30 11:33 41.56976 12.04583 38109 ft 401 kts 319°
2026-04-30 11:34 41.61241 11.99844 38101 ft 397 kts 311°
2026-04-30 11:34 41.65051 11.94501 38102 ft 396 kts 310°
2026-04-30 11:35 41.68829 11.89118 38099 ft 396 kts 310°
2026-04-30 11:35 41.72624 11.83762 38105 ft 397 kts 310°
2026-04-30 11:36 41.76431 11.78413 38103 ft 397 kts 311°
2026-04-30 11:36 41.80243 11.73059 38102 ft 397 kts 310°
2026-04-30 11:37 41.84050 11.67700 38111 ft 397 kts 310°
2026-04-30 11:37 41.87859 11.62329 38111 ft 397 kts 310°
2026-04-30 11:38 41.91663 11.56954 38118 ft 397 kts 310°
2026-04-30 11:38 41.95469 11.51566 38121 ft 397 kts 310°
2026-04-30 11:39 41.99270 11.46174 38122 ft 398 kts 310°
2026-04-30 11:39 42.03077 11.40767 38116 ft 398 kts 310°
2026-04-30 11:40 42.06878 11.35359 38120 ft 397 kts 310°
2026-04-30 11:40 42.10676 11.29945 38127 ft 398 kts 310°
2026-04-30 11:41 42.13831 11.25445 38133 ft 398 kts 310°
2026-04-30 11:41 42.18248 11.19132 38130 ft 398 kts 310°
2026-04-30 11:42 42.21431 11.14575 38130 ft 398 kts 310°
2026-04-30 11:42 42.25229 11.09125 38129 ft 398 kts 310°
2026-04-30 11:43 42.29025 11.03668 38130 ft 399 kts 310°
2026-04-30 11:43 42.32819 10.98203 38144 ft 399 kts 310°
2026-04-30 11:44 42.36641 10.92766 38150 ft 400 kts 314°
2026-04-30 11:44 42.41071 10.88177 38145 ft 402 kts 321°
2026-04-30 11:45 42.45598 10.83742 38154 ft 402 kts 321°
2026-04-30 11:45 42.50111 10.79286 38152 ft 401 kts 320°
2026-04-30 11:46 42.54607 10.74815 38150 ft 401 kts 320°
2026-04-30 11:46 42.59094 10.70335 38153 ft 400 kts 320°
2026-04-30 11:47 42.63545 10.65884 38154 ft 400 kts 320°
2026-04-30 11:47 42.68026 10.61394 38168 ft 400 kts 320°
2026-04-30 11:48 42.72500 10.56905 38173 ft 400 kts 320°
2026-04-30 11:48 42.76971 10.52409 38176 ft 400 kts 320°
2026-04-30 11:49 42.81444 10.47900 38188 ft 400 kts 320°
2026-04-30 11:49 42.85920 10.43382 38185 ft 400 kts 320°
2026-04-30 11:50 42.90391 10.38863 38185 ft 400 kts 320°
2026-04-30 11:50 42.94860 10.34338 38188 ft 399 kts 320°
2026-04-30 11:51 42.99316 10.29813 38183 ft 399 kts 320°
2026-04-30 11:51 43.03763 10.25293 38183 ft 398 kts 320°
2026-04-30 11:52 43.08204 10.20770 38186 ft 398 kts 320°
2026-04-30 11:52 43.12604 10.16279 38185 ft 397 kts 320°
2026-04-30 11:53 43.17026 10.11758 38184 ft 396 kts 320°
2026-04-30 11:53 43.21434 10.07244 38188 ft 395 kts 320°
2026-04-30 11:54 43.25841 10.02722 38185 ft 395 kts 320°
2026-04-30 11:54 43.30237 9.98202 38186 ft 394 kts 320°
2026-04-30 11:55 43.34623 9.93684 38183 ft 394 kts 320°
2026-04-30 11:55 43.39066 9.89286 38182 ft 395 kts 326°
2026-04-30 11:56 43.43866 9.85583 38181 ft 396 kts 327°
2026-04-30 11:56 43.48689 9.81941 38185 ft 395 kts 327°
2026-04-30 11:57 43.53493 9.78259 38182 ft 395 kts 327°
2026-04-30 11:57 43.58296 9.74539 37821 ft 395 kts 327°
2026-04-30 11:58 43.60683 9.72688 37428 ft 391 kts 327°
2026-04-30 11:58 43.63032 9.70865 37093 ft 385 kts 327°
2026-04-30 11:58 43.65352 9.69061 36704 ft 381 kts 327°
2026-04-30 11:58 43.67648 9.67273 36341 ft 377 kts 326°
2026-04-30 11:59 43.69922 9.65500 35956 ft 373 kts 326°
2026-04-30 11:59 43.72169 9.63747 35570 ft 370 kts 326°
2026-04-30 11:59 43.74402 9.62005 35187 ft 367 kts 326°
2026-04-30 11:59 43.76610 9.60279 34806 ft 363 kts 326°
2026-04-30 12:00 43.78798 9.58569 34453 ft 359 kts 326°
2026-04-30 12:00 43.80961 9.56878 34107 ft 356 kts 326°
2026-04-30 12:00 43.83105 9.55200 33745 ft 352 kts 326°
2026-04-30 12:00 43.85228 9.53536 33387 ft 349 kts 326°
2026-04-30 12:01 43.87304 9.51908 33039 ft 346 kts 326°
2026-04-30 12:01 43.89386 9.50273 32690 ft 342 kts 326°
2026-04-30 12:01 43.91448 9.48653 32341 ft 339 kts 326°
2026-04-30 12:01 43.93491 9.47048 32003 ft 336 kts 326°
2026-04-30 12:02 43.95519 9.45452 31657 ft 334 kts 325°
2026-04-30 12:02 43.97541 9.43898 31318 ft 332 kts 329°
2026-04-30 12:02 43.99694 9.42686 30986 ft 335 kts 337°
2026-04-30 12:02 44.01957 9.41891 30667 ft 335 kts 340°
2026-04-30 12:03 44.04220 9.41157 30330 ft 332 kts 341°
2026-04-30 12:03 44.08694 9.39713 29654 ft 327 kts 342°
2026-04-30 12:03 44.10900 9.38991 29315 ft 325 kts 342°
2026-04-30 12:04 44.13088 9.38273 28979 ft 322 kts 342°
2026-04-30 12:04 44.15264 9.37556 28641 ft 320 kts 342°
2026-04-30 12:04 44.17427 9.36843 28309 ft 319 kts 342°
2026-04-30 12:04 44.19583 9.36128 27976 ft 319 kts 343°
2026-04-30 12:05 44.21756 9.35404 27656 ft 326 kts 343°
2026-04-30 12:05 44.24003 9.34652 27316 ft 336 kts 343°
2026-04-30 12:05 44.26277 9.33895 26942 ft 335 kts 343°
2026-04-30 12:05 44.28536 9.33144 26583 ft 333 kts 343°
2026-04-30 12:06 44.30779 9.32399 26231 ft 330 kts 344°
2026-04-30 12:06 44.33007 9.31658 25879 ft 328 kts 344°
2026-04-30 12:06 44.35218 9.30920 25530 ft 325 kts 344°
2026-04-30 12:06 44.37409 9.30189 25193 ft 323 kts 345°
2026-04-30 12:07 44.39582 9.29462 24841 ft 320 kts 345°
2026-04-30 12:07 44.41740 9.28740 24516 ft 317 kts 345°
2026-04-30 12:07 44.43873 9.28026 24180 ft 315 kts 345°
2026-04-30 12:07 44.45998 9.27313 23842 ft 313 kts 345°
2026-04-30 12:08 44.48110 9.26605 23499 ft 311 kts 345°
2026-04-30 12:08 44.50200 9.25903 23168 ft 308 kts 345°
2026-04-30 12:08 44.52278 9.25205 22862 ft 306 kts 345°
2026-04-30 12:08 44.54349 9.24508 22522 ft 305 kts 346°
2026-04-30 12:09 44.56409 9.23815 22200 ft 304 kts 346°
2026-04-30 12:09 44.58461 9.23125 21875 ft 302 kts 346°
2026-04-30 12:09 44.60498 9.22439 21557 ft 301 kts 346°
2026-04-30 12:09 44.62531 9.21754 21223 ft 299 kts 346°
2026-04-30 12:10 44.64547 9.21074 20912 ft 297 kts 346°
2026-04-30 12:10 44.66527 9.20406 20597 ft 296 kts 346°
2026-04-30 12:10 44.68522 9.19733 20281 ft 294 kts 346°
2026-04-30 12:10 44.70532 9.19053 19974 ft 293 kts 346°
2026-04-30 12:11 44.72512 9.18383 19652 ft 292 kts 346°
2026-04-30 12:11 44.74477 9.17670 19338 ft 291 kts 339°
2026-04-30 12:11 44.76155 9.16187 19036 ft 291 kts 318°
2026-04-30 12:11 44.77441 9.13979 18807 ft 296 kts 304°
2026-04-30 12:12 44.78515 9.11470 18590 ft 301 kts 302°
2026-04-30 12:12 44.79550 9.08923 18326 ft 299 kts 302°
2026-04-30 12:12 44.80576 9.06384 18007 ft 298 kts 302°
2026-04-30 12:12 44.81604 9.03854 17701 ft 297 kts 302°
2026-04-30 12:13 44.82632 9.01337 17387 ft 296 kts 302°
2026-04-30 12:13 44.83663 8.98827 17067 ft 295 kts 302°
2026-04-30 12:13 44.84690 8.96335 16756 ft 293 kts 302°
2026-04-30 12:13 44.85715 8.93852 16429 ft 292 kts 302°
2026-04-30 12:14 44.86737 8.91375 16109 ft 292 kts 302°
2026-04-30 12:14 44.87757 8.88905 15788 ft 291 kts 302°
2026-04-30 12:14 44.88773 8.86441 15477 ft 290 kts 302°
2026-04-30 12:14 44.89785 8.83989 15161 ft 289 kts 302°
2026-04-30 12:15 44.90795 8.81539 14834 ft 288 kts 302°
2026-04-30 12:15 44.91800 8.79099 14521 ft 287 kts 302°
2026-04-30 12:15 44.92803 8.76663 14214 ft 286 kts 302°
2026-04-30 12:15 44.93796 8.74244 13892 ft 285 kts 302°
2026-04-30 12:16 44.94791 8.71823 13560 ft 285 kts 302°
2026-04-30 12:16 44.95783 8.69410 13256 ft 284 kts 302°
2026-04-30 12:16 44.96771 8.67005 12950 ft 283 kts 302°
2026-04-30 12:16 44.97754 8.64606 12646 ft 282 kts 302°
2026-04-30 12:17 44.99836 8.59956 12016 ft 278 kts 319°
2026-04-30 12:17 45.01465 8.58559 11748 ft 273 kts 340°
2026-04-30 12:17 45.03290 8.57888 11453 ft 271 kts 349°
2026-04-30 12:18 45.05139 8.57409 11167 ft 270 kts 350°
2026-04-30 12:18 45.06989 8.56937 10867 ft 270 kts 350°
2026-04-30 12:18 45.08832 8.56456 10571 ft 269 kts 350°
2026-04-30 12:18 45.10661 8.55965 10382 ft 264 kts 349°
2026-04-30 12:19 45.12445 8.55474 10200 ft 259 kts 349°
2026-04-30 12:19 45.14212 8.54984 9922 ft 258 kts 349°
2026-04-30 12:19 45.15969 8.54499 9662 ft 257 kts 349°
2026-04-30 12:19 45.17722 8.54014 9397 ft 255 kts 349°
2026-04-30 12:20 45.19446 8.53532 9265 ft 249 kts 349°
2026-04-30 12:20 45.21124 8.53066 9131 ft 243 kts 349°
2026-04-30 12:20 45.22767 8.52611 8966 ft 239 kts 349°
2026-04-30 12:20 45.24403 8.52154 8734 ft 242 kts 349°
2026-04-30 12:21 45.26081 8.51691 8497 ft 250 kts 349°
2026-04-30 12:21 45.27813 8.51211 8238 ft 257 kts 349°
2026-04-30 12:21 45.29573 8.50737 7964 ft 257 kts 353°
2026-04-30 12:21 45.31294 8.50998 7663 ft 255 kts 24°
2026-04-30 12:22 45.32700 8.52477 7403 ft 253 kts 51°
2026-04-30 12:22 45.33506 8.54667 7147 ft 251 kts 73°
2026-04-30 12:22 45.33884 8.57074 6904 ft 249 kts 79°
2026-04-30 12:22 45.34194 8.59497 6636 ft 249 kts 79°
2026-04-30 12:23 45.34504 8.61906 6314 ft 245 kts 79°
2026-04-30 12:23 45.34816 8.64247 6089 ft 236 kts 78°
2026-04-30 12:23 45.35116 8.66484 5922 ft 226 kts 79°
2026-04-30 12:23 45.35406 8.68647 5705 ft 220 kts 78°
2026-04-30 12:24 45.35694 8.70769 5511 ft 218 kts 78°
2026-04-30 12:24 45.35984 8.72905 5332 ft 222 kts 78°
2026-04-30 12:24 45.36281 8.75088 5139 ft 226 kts 79°
2026-04-30 12:24 45.36629 8.77252 4897 ft 224 kts 67°
2026-04-30 12:25 45.37590 8.78928 4685 ft 220 kts 30°
2026-04-30 12:25 45.39019 8.79529 4606 ft 214 kts
2026-04-30 12:25 45.40509 8.79371 4532 ft 216 kts 352°
2026-04-30 12:25 45.42002 8.79071 4444 ft 216 kts 352°
2026-04-30 12:26 45.43458 8.78750 4257 ft 210 kts 350°
2026-04-30 12:26 45.44874 8.78381 4013 ft 205 kts 349°
2026-04-30 12:26 45.46262 8.77999 3753 ft 201 kts 349°
2026-04-30 12:26 45.47623 8.77619 3471 ft 197 kts 349°
2026-04-30 12:27 45.48954 8.77249 3205 ft 193 kts 349°
2026-04-30 12:27 45.50259 8.76888 2958 ft 190 kts 349°
2026-04-30 12:27 45.51526 8.76536 2718 ft 180 kts 349°
2026-04-30 12:27 45.52707 8.76208 2511 ft 164 kts 350°
2026-04-30 12:28 45.53790 8.75908 2282 ft 155 kts 350°
2026-04-30 12:28 45.54850 8.75615 2057 ft 154 kts 351°
2026-04-30 12:28 45.55886 8.75327 1855 ft 151 kts 351°
2026-04-30 12:28 45.56904 8.75046 1671 ft 148 kts 349°
2026-04-30 12:29 45.57574 8.74860 1537 ft 149 kts 349°
2026-04-30 12:29 45.58597 8.74576 1332 ft 150 kts 349°
2026-04-30 12:29 45.59611 8.74294 1137 ft 148 kts 349°
2026-04-30 12:29 45.60622 8.74009 948 ft 147 kts 349°
2026-04-30 12:30 45.61635 8.73729 770 ft 148 kts 349°
2026-04-30 12:30 45.62554 8.73472 746 ft 109 kts 349°
2026-04-30 12:30 45.63090 8.73316 742 ft 48 kts 343°
2026-04-30 12:30 45.63233 8.73123 749 ft 20 kts 311°
2026-04-30 12:31 45.63282 8.73025 750 ft 12 kts 304°
2026-04-30 12:31 45.63335 8.72914 748 ft 15 kts 304°
2026-04-30 12:31 45.63393 8.72771 751 ft 18 kts 280°
2026-04-30 12:31 45.63305 8.72591 751 ft 18 kts 214°
2026-04-30 12:32 45.63237 8.72526 749 ft 17 kts 214°
2026-04-30 12:32 45.63139 8.72434 749 ft 17 kts 213°
2026-04-30 12:32 45.63051 8.72332 748 ft 17 kts 234°
2026-04-30 12:32 45.63023 8.72177 749 ft 16 kts 259°
2026-04-30 12:33 45.63002 8.72025 747 ft 15 kts 258°
2026-04-30 12:33 45.62981 8.71880 749 ft 15 kts 258°
2026-04-30 12:33 45.62977 8.71749 748 ft 12 kts 306°
2026-04-30 12:33 45.63051 8.71719 749 ft 10 kts 349°
2026-04-30 12:34 45.63079 8.71756 748 ft 5 kts 79°
2026-04-30 12:34 45.63085 8.71805 751 ft 5 kts 79°
2026-04-30 12:34 45.63086 8.71813 751 ft 0 kts 79°